owner,sensor,date,latitude,longitude,vertical_datum,wind_speed,wind_to_direction,wind_speed_of_gust,qcFlag 
TCOON,ioos:station:TCOON:524:1,2009-01-01T00:00:00Z,29.8672,-93.9310,0.0,0.9,29.0,3.7,'11111222,11111222,11111222' 
TCOON,ioos:station:TCOON:524:1,2009-01-01T00:06:00Z,29.8672,-93.9310,0.0,0.7,31.0,1.8,'11111222,11111222,11111222' 
TCOON,ioos:station:TCOON:524:1,2009-01-01T00:12:00Z,29.8672,-93.9310,0.0,1.1,34.0,1.9,'11111222,11111222,11111222' 
TCOON,ioos:station:TCOON:524:1,2009-01-01T00:18:00Z,29.8672,-93.9310,0.0,1.0,28.0,2.8,'11111222,11111222,11111222' 
TCOON,ioos:station:TCOON:524:1,2009-01-01T00:24:00Z,29.8672,-93.9310,0.0,0.8,33.0,1.9,'11111222,11111222,11111222' 
TCOON,ioos:station:TCOON:524:1,2009-01-01T00:30:00Z,29.8672,-93.9310,0.0,1.2,33.0,2.2,'11111222,11111222,11111222' 
TCOON,ioos:station:TCOON:524:1,2009-01-01T00:36:00Z,29.8672,-93.9310,0.0,1.4,35.0,3.0,'11111222,11111222,11111222' 
TCOON,ioos:station:TCOON:524:1,2009-01-01T00:42:00Z,29.8672,-93.9310,0.0,1.6,32.0,3.4,'11111222,11111222,11111222' 
TCOON,ioos:station:TCOON:524:1,2009-01-01T00:48:00Z,29.8672,-93.9310,0.0,1.1,30.0,2.2,'11111222,11111222,11111222' 
TCOON,ioos:station:TCOON:524:1,2009-01-01T00:54:00Z,29.8672,-93.9310,0.0,1.9,33.0,5.0,'11111222,11111222,11111222' 
TCOON,ioos:station:TCOON:524:1,2009-01-01T01:00:00Z,29.8672,-93.9310,0.0,1.3,28.0,2.5,'11111222,11111222,11111222' 
TCOON,ioos:station:TCOON:524:1,2009-01-01T02:06:00Z,29.8672,-93.9310,0.0,2.7,32.0,5.7,'11111222,11111222,11111222' 
TCOON,ioos:station:TCOON:524:1,2009-01-01T02:12:00Z,29.8672,-93.9310,0.0,2.3,39.0,4.8,'11111222,11111222,11111222' 
TCOON,ioos:station:TCOON:524:1,2009-01-01T02:18:00Z,29.8672,-93.9310,0.0,2.5,31.0,7.1,'11111222,11111222,11111222' 
TCOON,ioos:station:TCOON:524:1,2009-01-01T02:24:00Z,29.8672,-93.9310,0.0,1.7,34.0,3.9,'11111222,11111222,11111222' 
TCOON,ioos:station:TCOON:524:1,2009-01-01T02:30:00Z,29.8672,-93.9310,0.0,2.1,29.0,4.5,'11111222,11111222,11111222' 
TCOON,ioos:station:TCOON:524:1,2009-01-01T02:36:00Z,29.8672,-93.9310,0.0,2.0,36.0,3.9,'11111222,11111222,11111222' 
TCOON,ioos:station:TCOON:524:1,2009-01-01T02:42:00Z,29.8672,-93.9310,0.0,2.6,31.0,4.9,'11111222,11111222,11111222' 
TCOON,ioos:station:TCOON:524:1,2009-01-01T02:48:00Z,29.8672,-93.9310,0.0,2.0,31.0,4.9,'11111222,11111222,11111222' 
TCOON,ioos:station:TCOON:524:1,2009-01-01T02:54:00Z,29.8672,-93.9310,0.0,2.5,34.0,5.8,'11111222,11111222,11111222' 
TCOON,ioos:station:TCOON:524:1,2009-01-01T03:00:00Z,29.8672,-93.9310,0.0,2.7,38.0,6.3,'11111222,11111222,11111222' 
TCOON,ioos:station:TCOON:524:1,2009-01-01T03:06:00Z,29.8672,-93.9310,0.0,2.9,36.0,5.3,'11111222,11111222,11111222' 
TCOON,ioos:station:TCOON:524:1,2009-01-01T03:12:00Z,29.8672,-93.9310,0.0,2.8,35.0,5.6,'11111222,11111222,11111222' 
TCOON,ioos:station:TCOON:524:1,2009-01-01T03:18:00Z,29.8672,-93.9310,0.0,2.9,34.0,5.8,'11111222,11111222,11111222' 
TCOON,ioos:station:TCOON:524:1,2009-01-01T03:24:00Z,29.8672,-93.9310,0.0,3.4,35.0,6.1,'11111222,11111222,11111222' 
TCOON,ioos:station:TCOON:524:1,2009-01-01T03:30:00Z,29.8672,-93.9310,0.0,2.3,36.0,5.8,'11111222,11111222,11111222' 
TCOON,ioos:station:TCOON:524:1,2009-01-01T03:36:00Z,29.8672,-93.9310,0.0,2.4,32.0,7.3,'11111222,11111222,11111222' 
TCOON,ioos:station:TCOON:524:1,2009-01-01T03:42:00Z,29.8672,-93.9310,0.0,2.9,37.0,5.9,'11111222,11111222,11111222' 
TCOON,ioos:station:TCOON:524:1,2009-01-01T03:48:00Z,29.8672,-93.9310,0.0,3.1,36.0,6.9,'11111222,11111222,11111222' 
TCOON,ioos:station:TCOON:524:1,2009-01-01T03:54:00Z,29.8672,-93.9310,0.0,2.8,39.0,5.5,'11111222,11111222,11111222' 
TCOON,ioos:station:TCOON:524:1,2009-01-01T04:00:00Z,29.8672,-93.9310,0.0,1.9,35.0,4.8,'11111222,11111222,11111222' 
TCOON,ioos:station:TCOON:524:1,2009-01-01T04:06:00Z,29.8672,-93.9310,0.0,2.7,40.0,5.4,'11111222,11111222,11111222' 
TCOON,ioos:station:TCOON:524:1,2009-01-01T04:12:00Z,29.8672,-93.9310,0.0,2.9,37.0,7.7,'11111222,11111222,11111222' 
TCOON,ioos:station:TCOON:524:1,2009-01-01T04:18:00Z,29.8672,-93.9310,0.0,3.3,36.0,8.1,'11111222,11111222,11111222' 
TCOON,ioos:station:TCOON:524:1,2009-01-01T04:24:00Z,29.8672,-93.9310,0.0,4.3,38.0,8.0,'11111222,11111222,11111222' 
TCOON,ioos:station:TCOON:524:1,2009-01-01T04:30:00Z,29.8672,-93.9310,0.0,3.7,39.0,7.0,'11111222,11111222,11111222' 
TCOON,ioos:station:TCOON:524:1,2009-01-01T04:36:00Z,29.8672,-93.9310,0.0,4.8,44.0,8.7,'11111222,11111222,11111222' 
TCOON,ioos:station:TCOON:524:1,2009-01-01T04:42:00Z,29.8672,-93.9310,0.0,4.3,45.0,7.8,'11111222,11111222,11111222' 
TCOON,ioos:station:TCOON:524:1,2009-01-01T04:48:00Z,29.8672,-93.9310,0.0,4.8,49.0,7.8,'11111222,11111222,11111222' 
TCOON,ioos:station:TCOON:524:1,2009-01-01T04:54:00Z,29.8672,-93.9310,0.0,5.6,45.0,8.2,'11111222,11111222,11111222' 
TCOON,ioos:station:TCOON:524:1,2009-01-01T05:00:00Z,29.8672,-93.9310,0.0,4.2,44.0,6.8,'11111222,11111222,11111222' 
TCOON,ioos:station:TCOON:524:1,2009-01-01T05:06:00Z,29.8672,-93.9310,0.0,4.8,47.0,7.8,'11111222,11111222,11111222' 
TCOON,ioos:station:TCOON:524:1,2009-01-01T05:12:00Z,29.8672,-93.9310,0.0,4.2,43.0,7.5,'11111222,11111222,11111222' 
TCOON,ioos:station:TCOON:524:1,2009-01-01T05:18:00Z,29.8672,-93.9310,0.0,3.9,47.0,7.1,'11111222,11111222,11111222' 
TCOON,ioos:station:TCOON:524:1,2009-01-01T05:24:00Z,29.8672,-93.9310,0.0,3.1,42.0,6.4,'11111222,11111222,11111222' 
TCOON,ioos:station:TCOON:524:1,2009-01-01T05:30:00Z,29.8672,-93.9310,0.0,3.1,40.0,7.0,'11111222,11111222,11111222' 
TCOON,ioos:station:TCOON:524:1,2009-01-01T05:36:00Z,29.8672,-93.9310,0.0,3.7,45.0,6.4,'11111222,11111222,11111222' 
TCOON,ioos:station:TCOON:524:1,2009-01-01T05:42:00Z,29.8672,-93.9310,0.0,3.6,45.0,6.7,'11111222,11111222,11111222' 
TCOON,ioos:station:TCOON:524:1,2009-01-01T05:48:00Z,29.8672,-93.9310,0.0,3.3,45.0,5.2,'11111222,11111222,11111222' 
TCOON,ioos:station:TCOON:524:1,2009-01-01T05:54:00Z,29.8672,-93.9310,0.0,3.0,45.0,5.4,'11111222,11111222,11111222' 
TCOON,ioos:station:TCOON:524:1,2009-01-01T06:00:00Z,29.8672,-93.9310,0.0,3.6,46.0,6.7,'11111222,11111222,11111222' 
TCOON,ioos:station:TCOON:524:1,2009-01-01T06:06:00Z,29.8672,-93.9310,0.0,4.2,45.0,6.8,'11111222,11111222,11111222' 
TCOON,ioos:station:TCOON:524:1,2009-01-01T06:12:00Z,29.8672,-93.9310,0.0,4.0,49.0,6.1,'11111222,11111222,11111222' 
TCOON,ioos:station:TCOON:524:1,2009-01-01T06:18:00Z,29.8672,-93.9310,0.0,4.2,47.0,6.9,'11111222,11111222,11111222' 
TCOON,ioos:station:TCOON:524:1,2009-01-01T06:24:00Z,29.8672,-93.9310,0.0,3.6,44.0,5.9,'11111222,11111222,11111222' 
TCOON,ioos:station:TCOON:524:1,2009-01-01T06:30:00Z,29.8672,-93.9310,0.0,2.9,39.0,5.1,'11111222,11111222,11111222' 
TCOON,ioos:station:TCOON:524:1,2009-01-01T06:36:00Z,29.8672,-93.9310,0.0,2.9,38.0,5.2,'11111222,11111222,11111222' 
TCOON,ioos:station:TCOON:524:1,2009-01-01T06:42:00Z,29.8672,-93.9310,0.0,2.2,39.0,4.1,'11111222,11111222,11111222' 
TCOON,ioos:station:TCOON:524:1,2009-01-01T06:48:00Z,29.8672,-93.9310,0.0,3.7,44.0,5.3,'11111222,11111222,11111222' 
TCOON,ioos:station:TCOON:524:1,2009-01-01T06:54:00Z,29.8672,-93.9310,0.0,2.9,45.0,5.9,'11111222,11111222,11111222' 
TCOON,ioos:station:TCOON:524:1,2009-01-01T07:00:00Z,29.8672,-93.9310,0.0,2.4,44.0,4.3,'11111222,11111222,11111222' 
TCOON,ioos:station:TCOON:524:1,2009-01-01T07:06:00Z,29.8672,-93.9310,0.0,3.6,52.0,6.2,'11111222,11111222,11111222' 
TCOON,ioos:station:TCOON:524:1,2009-01-01T07:12:00Z,29.8672,-93.9310,0.0,2.9,47.0,5.3,'11111222,11111222,11111222' 
TCOON,ioos:station:TCOON:524:1,2009-01-01T07:18:00Z,29.8672,-93.9310,0.0,4.4,48.0,7.0,'11111222,11111222,11111222' 
TCOON,ioos:station:TCOON:524:1,2009-01-01T07:24:00Z,29.8672,-93.9310,0.0,4.2,56.0,5.8,'11111222,11111222,11111222' 
TCOON,ioos:station:TCOON:524:1,2009-01-01T07:30:00Z,29.8672,-93.9310,0.0,4.1,56.0,5.9,'11111222,11111222,11111222' 
TCOON,ioos:station:TCOON:524:1,2009-01-01T07:36:00Z,29.8672,-93.9310,0.0,5.2,59.0,6.9,'11111222,11111222,11111222' 
TCOON,ioos:station:TCOON:524:1,2009-01-01T07:42:00Z,29.8672,-93.9310,0.0,4.4,55.0,6.8,'11111222,11111222,11111222' 
TCOON,ioos:station:TCOON:524:1,2009-01-01T07:48:00Z,29.8672,-93.9310,0.0,4.9,58.0,6.3,'11111222,11111222,11111222' 
TCOON,ioos:station:TCOON:524:1,2009-01-01T07:54:00Z,29.8672,-93.9310,0.0,5.2,58.0,6.8,'11111222,11111222,11111222' 
TCOON,ioos:station:TCOON:524:1,2009-01-01T08:00:00Z,29.8672,-93.9310,0.0,4.5,59.0,6.8,'11111222,11111222,11111222' 
TCOON,ioos:station:TCOON:524:1,2009-01-01T08:06:00Z,29.8672,-93.9310,0.0,4.4,54.0,6.2,'11111222,11111222,11111222' 
TCOON,ioos:station:TCOON:524:1,2009-01-01T08:12:00Z,29.8672,-93.9310,0.0,4.1,53.0,6.8,'11111222,11111222,11111222' 
TCOON,ioos:station:TCOON:524:1,2009-01-01T08:18:00Z,29.8672,-93.9310,0.0,4.9,58.0,6.9,'11111222,11111222,11111222' 
TCOON,ioos:station:TCOON:524:1,2009-01-01T08:24:00Z,29.8672,-93.9310,0.0,5.4,57.0,7.6,'11111222,11111222,11111222' 
TCOON,ioos:station:TCOON:524:1,2009-01-01T08:30:00Z,29.8672,-93.9310,0.0,5.7,57.0,7.8,'11111222,11111222,11111222' 
TCOON,ioos:station:TCOON:524:1,2009-01-01T08:36:00Z,29.8672,-93.9310,0.0,5.0,61.0,7.5,'11111222,11111222,11111222' 
TCOON,ioos:station:TCOON:524:1,2009-01-01T08:42:00Z,29.8672,-93.9310,0.0,5.0,58.0,7.2,'11111222,11111222,11111222' 
TCOON,ioos:station:TCOON:524:1,2009-01-01T08:48:00Z,29.8672,-93.9310,0.0,4.9,56.0,7.9,'11111222,11111222,11111222' 
TCOON,ioos:station:TCOON:524:1,2009-01-01T08:54:00Z,29.8672,-93.9310,0.0,4.7,50.0,7.6,'11111222,11111222,11111222' 
TCOON,ioos:station:TCOON:524:1,2009-01-01T09:00:00Z,29.8672,-93.9310,0.0,4.7,51.0,7.0,'11111222,11111222,11111222' 
TCOON,ioos:station:TCOON:524:1,2009-01-01T09:06:00Z,29.8672,-93.9310,0.0,3.6,55.0,5.1,'11111222,11111222,11111222' 
TCOON,ioos:station:TCOON:524:1,2009-01-01T09:12:00Z,29.8672,-93.9310,0.0,4.7,59.0,6.4,'11111222,11111222,11111222' 
TCOON,ioos:station:TCOON:524:1,2009-01-01T09:18:00Z,29.8672,-93.9310,0.0,4.4,55.0,6.6,'11111222,11111222,11111222' 
TCOON,ioos:station:TCOON:524:1,2009-01-01T09:24:00Z,29.8672,-93.9310,0.0,4.5,55.0,7.0,'11111222,11111222,11111222' 
TCOON,ioos:station:TCOON:524:1,2009-01-01T09:30:00Z,29.8672,-93.9310,0.0,3.8,55.0,5.6,'11111222,11111222,11111222' 
TCOON,ioos:station:TCOON:524:1,2009-01-01T09:36:00Z,29.8672,-93.9310,0.0,4.0,60.0,5.5,'11111222,11111222,11111222' 
TCOON,ioos:station:TCOON:524:1,2009-01-01T09:42:00Z,29.8672,-93.9310,0.0,4.2,55.0,5.5,'11111222,11111222,11111222' 
TCOON,ioos:station:TCOON:524:1,2009-01-01T09:48:00Z,29.8672,-93.9310,0.0,2.5,54.0,4.9,'11111222,11111222,11111222' 
TCOON,ioos:station:TCOON:524:1,2009-01-01T09:54:00Z,29.8672,-93.9310,0.0,5.2,64.0,7.4,'11111222,11111222,11111222' 
TCOON,ioos:station:TCOON:524:1,2009-01-01T10:00:00Z,29.8672,-93.9310,0.0,4.7,62.0,7.3,'11111222,11111222,11111222' 
TCOON,ioos:station:TCOON:524:1,2009-01-01T10:06:00Z,29.8672,-93.9310,0.0,4.6,67.0,6.7,'11111222,11111222,11111222' 
TCOON,ioos:station:TCOON:524:1,2009-01-01T10:12:00Z,29.8672,-93.9310,0.0,2.8,61.0,5.0,'11111222,11111222,11111222' 
TCOON,ioos:station:TCOON:524:1,2009-01-01T10:18:00Z,29.8672,-93.9310,0.0,3.2,72.0,5.0,'11111222,11111222,11111222' 
TCOON,ioos:station:TCOON:524:1,2009-01-01T10:24:00Z,29.8672,-93.9310,0.0,4.0,75.0,6.0,'11111222,11111222,11111222' 
TCOON,ioos:station:TCOON:524:1,2009-01-01T10:30:00Z,29.8672,-93.9310,0.0,4.5,78.0,6.2,'11111222,11111222,11111222' 
TCOON,ioos:station:TCOON:524:1,2009-01-01T10:36:00Z,29.8672,-93.9310,0.0,4.6,70.0,6.7,'11111222,11111222,11111222' 
TCOON,ioos:station:TCOON:524:1,2009-01-01T10:42:00Z,29.8672,-93.9310,0.0,3.5,67.0,5.6,'11111222,11111222,11111222' 
TCOON,ioos:station:TCOON:524:1,2009-01-01T10:48:00Z,29.8672,-93.9310,0.0,3.8,69.0,5.3,'11111222,11111222,11111222' 
TCOON,ioos:station:TCOON:524:1,2009-01-01T10:54:00Z,29.8672,-93.9310,0.0,5.1,72.0,6.4,'11111222,11111222,11111222' 
TCOON,ioos:station:TCOON:524:1,2009-01-01T11:00:00Z,29.8672,-93.9310,0.0,4.4,74.0,5.7,'11111222,11111222,11111222' 
TCOON,ioos:station:TCOON:524:1,2009-01-01T11:06:00Z,29.8672,-93.9310,0.0,3.8,73.0,5.8,'11111222,11111222,11111222' 
TCOON,ioos:station:TCOON:524:1,2009-01-01T11:12:00Z,29.8672,-93.9310,0.0,3.2,77.0,4.7,'11111222,11111222,11111222' 
TCOON,ioos:station:TCOON:524:1,2009-01-01T11:18:00Z,29.8672,-93.9310,0.0,2.9,65.0,4.4,'11111222,11111222,11111222' 
TCOON,ioos:station:TCOON:524:1,2009-01-01T11:24:00Z,29.8672,-93.9310,0.0,3.8,77.0,5.6,'11111222,11111222,11111222' 
TCOON,ioos:station:TCOON:524:1,2009-01-01T11:30:00Z,29.8672,-93.9310,0.0,3.2,71.0,5.6,'11111222,11111222,11111222' 
TCOON,ioos:station:TCOON:524:1,2009-01-01T11:36:00Z,29.8672,-93.9310,0.0,3.8,82.0,5.3,'11111222,11111222,11111222' 
TCOON,ioos:station:TCOON:524:1,2009-01-01T11:42:00Z,29.8672,-93.9310,0.0,4.1,79.0,5.5,'11111222,11111222,11111222' 
TCOON,ioos:station:TCOON:524:1,2009-01-01T11:48:00Z,29.8672,-93.9310,0.0,3.2,78.0,4.8,'11111222,11111222,11111222' 
TCOON,ioos:station:TCOON:524:1,2009-01-01T11:54:00Z,29.8672,-93.9310,0.0,3.9,72.0,5.6,'11111222,11111222,11111222' 
TCOON,ioos:station:TCOON:524:1,2009-01-01T12:00:00Z,29.8672,-93.9310,0.0,4.8,79.0,6.4,'11111222,11111222,11111222' 
TCOON,ioos:station:TCOON:524:1,2009-01-01T12:06:00Z,29.8672,-93.9310,0.0,2.8,72.0,4.0,'11111222,11111222,11111222' 
TCOON,ioos:station:TCOON:524:1,2009-01-01T12:12:00Z,29.8672,-93.9310,0.0,3.1,75.0,4.4,'11111222,11111222,11111222' 
TCOON,ioos:station:TCOON:524:1,2009-01-01T12:18:00Z,29.8672,-93.9310,0.0,2.9,73.0,4.5,'11111222,11111222,11111222' 
TCOON,ioos:station:TCOON:524:1,2009-01-01T12:24:00Z,29.8672,-93.9310,0.0,2.8,65.0,4.2,'11111222,11111222,11111222' 
TCOON,ioos:station:TCOON:524:1,2009-01-01T12:30:00Z,29.8672,-93.9310,0.0,3.8,73.0,5.6,'11111222,11111222,11111222' 
TCOON,ioos:station:TCOON:524:1,2009-01-01T12:36:00Z,29.8672,-93.9310,0.0,3.4,68.0,4.6,'11111222,11111222,11111222' 
TCOON,ioos:station:TCOON:524:1,2009-01-01T12:42:00Z,29.8672,-93.9310,0.0,3.6,70.0,5.9,'11111222,11111222,11111222' 
TCOON,ioos:station:TCOON:524:1,2009-01-01T12:48:00Z,29.8672,-93.9310,0.0,4.0,73.0,5.7,'11111222,11111222,11111222' 
TCOON,ioos:station:TCOON:524:1,2009-01-01T12:54:00Z,29.8672,-93.9310,0.0,3.0,70.0,5.0,'11111222,11111222,11111222' 
TCOON,ioos:station:TCOON:524:1,2009-01-01T13:00:00Z,29.8672,-93.9310,0.0,3.7,73.0,5.3,'11111222,11111222,11111222' 
TCOON,ioos:station:TCOON:524:1,2009-01-01T13:06:00Z,29.8672,-93.9310,0.0,4.6,75.0,6.0,'11111222,11111222,11111222' 
TCOON,ioos:station:TCOON:524:1,2009-01-01T13:12:00Z,29.8672,-93.9310,0.0,3.8,76.0,5.2,'11111222,11111222,11111222' 
TCOON,ioos:station:TCOON:524:1,2009-01-01T13:18:00Z,29.8672,-93.9310,0.0,3.7,79.0,5.7,'11111222,11111222,11111222' 
TCOON,ioos:station:TCOON:524:1,2009-01-01T13:24:00Z,29.8672,-93.9310,0.0,4.1,78.0,5.1,'11111222,11111222,11111222' 
TCOON,ioos:station:TCOON:524:1,2009-01-01T13:30:00Z,29.8672,-93.9310,0.0,4.0,76.0,5.8,'11111222,11111222,11111222' 
TCOON,ioos:station:TCOON:524:1,2009-01-01T13:36:00Z,29.8672,-93.9310,0.0,4.4,82.0,5.7,'11111222,11111222,11111222' 
TCOON,ioos:station:TCOON:524:1,2009-01-01T13:42:00Z,29.8672,-93.9310,0.0,3.9,71.0,5.7,'11111222,11111222,11111222' 
TCOON,ioos:station:TCOON:524:1,2009-01-01T13:48:00Z,29.8672,-93.9310,0.0,4.3,75.0,5.9,'11111222,11111222,11111222' 
TCOON,ioos:station:TCOON:524:1,2009-01-01T13:54:00Z,29.8672,-93.9310,0.0,4.2,72.0,5.9,'11111222,11111222,11111222' 
TCOON,ioos:station:TCOON:524:1,2009-01-01T14:00:00Z,29.8672,-93.9310,0.0,4.0,71.0,5.1,'11111222,11111222,11111222' 
TCOON,ioos:station:TCOON:524:1,2009-01-01T14:06:00Z,29.8672,-93.9310,0.0,3.6,66.0,4.8,'11111222,11111222,11111222' 
TCOON,ioos:station:TCOON:524:1,2009-01-01T14:12:00Z,29.8672,-93.9310,0.0,3.8,80.0,5.1,'11111222,11111222,11111222' 
TCOON,ioos:station:TCOON:524:1,2009-01-01T14:18:00Z,29.8672,-93.9310,0.0,3.4,71.0,5.7,'11111222,11111222,11111222' 
TCOON,ioos:station:TCOON:524:1,2009-01-01T14:24:00Z,29.8672,-93.9310,0.0,2.7,73.0,3.8,'11111222,11111222,11111222' 
TCOON,ioos:station:TCOON:524:1,2009-01-01T14:30:00Z,29.8672,-93.9310,0.0,2.5,66.0,4.1,'11111222,11111222,11111222' 
TCOON,ioos:station:TCOON:524:1,2009-01-01T14:36:00Z,29.8672,-93.9310,0.0,3.6,73.0,5.1,'11111222,11111222,11111222' 
TCOON,ioos:station:TCOON:524:1,2009-01-01T14:42:00Z,29.8672,-93.9310,0.0,3.5,74.0,5.1,'11111222,11111222,11111222' 
TCOON,ioos:station:TCOON:524:1,2009-01-01T14:48:00Z,29.8672,-93.9310,0.0,3.2,67.0,4.5,'11111222,11111222,11111222' 
TCOON,ioos:station:TCOON:524:1,2009-01-01T14:54:00Z,29.8672,-93.9310,0.0,3.3,60.0,4.3,'11111222,11111222,11111222' 
TCOON,ioos:station:TCOON:524:1,2009-01-01T15:00:00Z,29.8672,-93.9310,0.0,2.9,63.0,4.3,'11111222,11111222,11111222' 
TCOON,ioos:station:TCOON:524:1,2009-01-01T15:06:00Z,29.8672,-93.9310,0.0,3.3,55.0,4.3,'11111222,11111222,11111222' 
TCOON,ioos:station:TCOON:524:1,2009-01-01T15:12:00Z,29.8672,-93.9310,0.0,2.7,62.0,4.2,'11111222,11111222,11111222' 
TCOON,ioos:station:TCOON:524:1,2009-01-01T15:18:00Z,29.8672,-93.9310,0.0,3.0,59.0,4.7,'11111222,11111222,11111222' 
TCOON,ioos:station:TCOON:524:1,2009-01-01T15:24:00Z,29.8672,-93.9310,0.0,3.3,62.0,4.6,'11111222,11111222,11111222' 
TCOON,ioos:station:TCOON:524:1,2009-01-01T15:30:00Z,29.8672,-93.9310,0.0,3.3,62.0,4.4,'11111222,11111222,11111222' 
TCOON,ioos:station:TCOON:524:1,2009-01-01T15:36:00Z,29.8672,-93.9310,0.0,2.8,71.0,3.9,'11111222,11111222,11111222' 
TCOON,ioos:station:TCOON:524:1,2009-01-01T15:42:00Z,29.8672,-93.9310,0.0,2.6,68.0,4.4,'11111222,11111222,11111222' 
TCOON,ioos:station:TCOON:524:1,2009-01-01T15:48:00Z,29.8672,-93.9310,0.0,3.6,68.0,4.7,'11111222,11111222,11111222' 
TCOON,ioos:station:TCOON:524:1,2009-01-01T15:54:00Z,29.8672,-93.9310,0.0,3.0,65.0,4.4,'11111222,11111222,11111222' 
TCOON,ioos:station:TCOON:524:1,2009-01-01T16:00:00Z,29.8672,-93.9310,0.0,3.0,60.0,4.4,'11111222,11111222,11111222' 
TCOON,ioos:station:TCOON:524:1,2009-01-01T16:06:00Z,29.8672,-93.9310,0.0,3.3,62.0,4.1,'11111222,11111222,11111222' 
TCOON,ioos:station:TCOON:524:1,2009-01-01T16:12:00Z,29.8672,-93.9310,0.0,3.4,62.0,4.7,'11111222,11111222,11111222' 
TCOON,ioos:station:TCOON:524:1,2009-01-01T16:18:00Z,29.8672,-93.9310,0.0,3.7,60.0,5.1,'11111222,11111222,11111222' 
TCOON,ioos:station:TCOON:524:1,2009-01-01T16:24:00Z,29.8672,-93.9310,0.0,3.5,53.0,5.0,'11111222,11111222,11111222' 
TCOON,ioos:station:TCOON:524:1,2009-01-01T16:30:00Z,29.8672,-93.9310,0.0,2.7,51.0,4.4,'11111222,11111222,11111222' 
TCOON,ioos:station:TCOON:524:1,2009-01-01T16:36:00Z,29.8672,-93.9310,0.0,4.1,62.0,5.3,'11111222,11111222,11111222' 
TCOON,ioos:station:TCOON:524:1,2009-01-01T16:42:00Z,29.8672,-93.9310,0.0,3.5,61.0,5.0,'11111222,11111222,11111222' 
TCOON,ioos:station:TCOON:524:1,2009-01-01T16:48:00Z,29.8672,-93.9310,0.0,3.4,62.0,4.5,'11111222,11111222,11111222' 
TCOON,ioos:station:TCOON:524:1,2009-01-01T16:54:00Z,29.8672,-93.9310,0.0,2.7,71.0,3.8,'11111222,11111222,11111222' 
TCOON,ioos:station:TCOON:524:1,2009-01-01T17:00:00Z,29.8672,-93.9310,0.0,3.1,50.0,4.3,'11111222,11111222,11111222' 
TCOON,ioos:station:TCOON:524:1,2009-01-01T17:06:00Z,29.8672,-93.9310,0.0,3.3,56.0,4.4,'11111222,11111222,11111222' 
TCOON,ioos:station:TCOON:524:1,2009-01-01T17:12:00Z,29.8672,-93.9310,0.0,2.0,46.0,3.8,'11111222,11111222,11111222' 
TCOON,ioos:station:TCOON:524:1,2009-01-01T17:18:00Z,29.8672,-93.9310,0.0,3.0,54.0,5.0,'11111222,11111222,11111222' 
TCOON,ioos:station:TCOON:524:1,2009-01-01T17:24:00Z,29.8672,-93.9310,0.0,2.4,52.0,3.6,'11111222,11111222,11111222' 
TCOON,ioos:station:TCOON:524:1,2009-01-01T17:30:00Z,29.8672,-93.9310,0.0,2.7,49.0,3.6,'11111222,11111222,11111222' 
TCOON,ioos:station:TCOON:524:1,2009-01-01T17:36:00Z,29.8672,-93.9310,0.0,2.9,64.0,4.4,'11111222,11111222,11111222' 
TCOON,ioos:station:TCOON:524:1,2009-01-01T17:42:00Z,29.8672,-93.9310,0.0,2.8,57.0,4.6,'11111222,11111222,11111222' 
TCOON,ioos:station:TCOON:524:1,2009-01-01T17:48:00Z,29.8672,-93.9310,0.0,3.0,59.0,4.4,'11111222,11111222,11111222' 
TCOON,ioos:station:TCOON:524:1,2009-01-01T17:54:00Z,29.8672,-93.9310,0.0,2.6,61.0,3.7,'11111222,11111222,11111222' 
TCOON,ioos:station:TCOON:524:1,2009-01-01T18:00:00Z,29.8672,-93.9310,0.0,2.6,59.0,3.6,'11111222,11111222,11111222' 
TCOON,ioos:station:TCOON:524:1,2009-01-01T18:06:00Z,29.8672,-93.9310,0.0,3.0,58.0,4.2,'11111222,11111222,11111222' 
TCOON,ioos:station:TCOON:524:1,2009-01-01T18:12:00Z,29.8672,-93.9310,0.0,2.5,58.0,3.6,'11111222,11111222,11111222' 
TCOON,ioos:station:TCOON:524:1,2009-01-01T18:18:00Z,29.8672,-93.9310,0.0,2.6,63.0,4.4,'11111222,11111222,11111222' 
TCOON,ioos:station:TCOON:524:1,2009-01-01T18:24:00Z,29.8672,-93.9310,0.0,3.4,64.0,4.7,'11111222,11111222,11111222' 
TCOON,ioos:station:TCOON:524:1,2009-01-01T18:30:00Z,29.8672,-93.9310,0.0,2.5,54.0,4.0,'11111222,11111222,11111222' 
TCOON,ioos:station:TCOON:524:1,2009-01-01T18:36:00Z,29.8672,-93.9310,0.0,2.9,74.0,3.7,'11111222,11111222,11111222' 
TCOON,ioos:station:TCOON:524:1,2009-01-01T18:42:00Z,29.8672,-93.9310,0.0,3.6,62.0,5.6,'11111222,11111222,11111222' 
TCOON,ioos:station:TCOON:524:1,2009-01-01T18:48:00Z,29.8672,-93.9310,0.0,2.9,59.0,4.2,'11111222,11111222,11111222' 
TCOON,ioos:station:TCOON:524:1,2009-01-01T18:54:00Z,29.8672,-93.9310,0.0,2.9,63.0,4.0,'11111222,11111222,11111222' 
TCOON,ioos:station:TCOON:524:1,2009-01-01T19:00:00Z,29.8672,-93.9310,0.0,1.9,82.0,2.9,'11111222,11111222,11111222' 
TCOON,ioos:station:TCOON:524:1,2009-01-01T19:06:00Z,29.8672,-93.9310,0.0,2.3,87.0,3.2,'11111222,11111222,11111222' 
TCOON,ioos:station:TCOON:524:1,2009-01-01T19:12:00Z,29.8672,-93.9310,0.0,3.2,100.0,4.3,'11111222,11111222,11111222' 
TCOON,ioos:station:TCOON:524:1,2009-01-01T19:18:00Z,29.8672,-93.9310,0.0,3.3,98.0,4.5,'11111222,11111222,11111222' 
TCOON,ioos:station:TCOON:524:1,2009-01-01T19:24:00Z,29.8672,-93.9310,0.0,3.5,97.0,4.8,'11111222,11111222,11111222' 
TCOON,ioos:station:TCOON:524:1,2009-01-01T19:30:00Z,29.8672,-93.9310,0.0,4.3,92.0,5.2,'11111222,11111222,11111222' 
TCOON,ioos:station:TCOON:524:1,2009-01-01T19:36:00Z,29.8672,-93.9310,0.0,3.0,93.0,4.8,'11111222,11111222,11111222' 
TCOON,ioos:station:TCOON:524:1,2009-01-01T19:42:00Z,29.8672,-93.9310,0.0,3.7,95.0,5.0,'11111222,11111222,11111222' 
TCOON,ioos:station:TCOON:524:1,2009-01-01T19:48:00Z,29.8672,-93.9310,0.0,4.1,91.0,5.0,'11111222,11111222,11111222' 
TCOON,ioos:station:TCOON:524:1,2009-01-01T19:54:00Z,29.8672,-93.9310,0.0,4.1,91.0,5.0,'11111222,11111222,11111222' 
TCOON,ioos:station:TCOON:524:1,2009-01-01T20:00:00Z,29.8672,-93.9310,0.0,3.0,99.0,4.4,'11111222,11111222,11111222' 
TCOON,ioos:station:TCOON:524:1,2009-01-01T20:06:00Z,29.8672,-93.9310,0.0,3.9,90.0,4.7,'11111222,11111222,11111222' 
TCOON,ioos:station:TCOON:524:1,2009-01-01T20:12:00Z,29.8672,-93.9310,0.0,3.0,103.0,4.2,'11111222,11111222,11111222' 
TCOON,ioos:station:TCOON:524:1,2009-01-01T20:18:00Z,29.8672,-93.9310,0.0,3.4,99.0,4.4,'11111222,11111222,11111222' 
TCOON,ioos:station:TCOON:524:1,2009-01-01T20:24:00Z,29.8672,-93.9310,0.0,2.8,100.0,3.8,'11111222,11111222,11111222' 
TCOON,ioos:station:TCOON:524:1,2009-01-01T20:30:00Z,29.8672,-93.9310,0.0,3.0,88.0,3.8,'11111222,11111222,11111222' 
TCOON,ioos:station:TCOON:524:1,2009-01-01T20:36:00Z,29.8672,-93.9310,0.0,2.7,84.0,3.6,'11111222,11111222,11111222' 
TCOON,ioos:station:TCOON:524:1,2009-01-01T20:42:00Z,29.8672,-93.9310,0.0,3.1,102.0,4.2,'11111222,11111222,11111222' 
TCOON,ioos:station:TCOON:524:1,2009-01-01T20:48:00Z,29.8672,-93.9310,0.0,3.3,92.0,4.6,'11111222,11111222,11111222' 
TCOON,ioos:station:TCOON:524:1,2009-01-01T20:54:00Z,29.8672,-93.9310,0.0,2.4,105.0,3.4,'11111222,11111222,11111222' 
TCOON,ioos:station:TCOON:524:1,2009-01-01T21:00:00Z,29.8672,-93.9310,0.0,2.6,107.0,3.8,'11111222,11111222,11111222' 
TCOON,ioos:station:TCOON:524:1,2009-01-01T21:06:00Z,29.8672,-93.9310,0.0,2.7,107.0,3.9,'11111222,11111222,11111222' 
TCOON,ioos:station:TCOON:524:1,2009-01-01T21:12:00Z,29.8672,-93.9310,0.0,2.2,100.0,3.1,'11111222,11111222,11111222' 
TCOON,ioos:station:TCOON:524:1,2009-01-01T21:18:00Z,29.8672,-93.9310,0.0,2.2,101.0,3.5,'11111222,11111222,11111222' 
TCOON,ioos:station:TCOON:524:1,2009-01-01T21:24:00Z,29.8672,-93.9310,0.0,2.5,102.0,3.3,'11111222,11111222,11111222' 